sat.trackr.live / text

‹ back to catalog

STARLINK-37798

NORAD 69497 · 2026-131V

PAYLOAD ACTIVE UNKNOWN

§ Identity

Operator
Country
US
Launch date
2026-06-11
Launch site
AFWTR
Launch vehicle
Mass (kg)
RCS (m²)

Purposes: comms

External: N2YO · Heavens-Above · Gunter

§ Orbital elements

Epoch: 2026-09-19T06:41:26.127168Z

Period
93.91 min
Inclination
97.2845°
Eccentricity
0.0001595
Mean motion
15.33450375 rev/d
Perigee alt
464.4 km
Apogee alt
466.6 km
Semi-major
6,843.7 km
B*
4.5329e-4
RAAN
283.2098°
Arg perigee
108.8542°
Mean anomaly
251.2874°
Rev number
1,545

§ Raw data

STARLINK-377981 69497U 26131V   26262.27877462  .00014590  00000+0  45329-3 0  99932 69497  97.2845 283.2098 0001595 108.8542 251.2874 15.33450375 15452

JSON: /api/v1/satellites/69497 · /tle

For live sub-satellite position, see the globe view (requires WebGL).

§ Visibility from observer

Set your observer location to see the next 7 days of passes ≥ 10°. The values pass through the URL so the page stays shareable.

No JS? Fill the form by hand. The geolocation button needs JavaScript.